Orbital Elements at Epoch 2459200.5 (2020-Dec-17.0) TDB
Reference: JPL 31 (heliocentric ecliptic J2000)
Element | Value | Uncertainty (1-sigma) | Units |
e | .07726697578476516 | 1.759e-08 | |
a | 2.605706123514094 | 9.9309e-09 | au |
q | 2.404371091566316 | 4.4382e-08 | au |
i | 15.22266713585438 | 5.0243e-07 | deg |
node | 140.8151986289921 | 3.008e-06 | deg |
peri | 103.9690031256883 | 1.586e-05 | deg |
M | 121.5622486610005 | 1.3827e-05 | deg |
tp | 2458681.720505614751 (2019-Jul-17.22050561) | 5.8262e-05 | TDB |
period | 1536.337308957711 4.21 | 8.783e-06 2.405e-08 | d yr |
n | .2343235420379349 | 1.3396e-09 | deg/d |
Q | 2.807041155461872 | 1.0698e-08 | au |
|
| | Orbit Determination Parameters
Additional Information
|